| time (UTC) | temp F | wind direction | speed MPH | gust MPH | rain 1hr in | rain 24hr in | rain mn in | humidity % | barometer mb |
| 20260906224612 | 63 | 360 | 4.0 | 8.0 | 0.00 | 0.11 | 0.00 | 76 | 1015.4 |
| 20260906223110 | 63 | 355 | 4.0 | 9.0 | 0.00 | 0.11 | 0.00 | 76 | 1015.5 |
| 20260906221608 | 62 | 352 | 5.0 | 10.0 | 0.00 | 0.11 | 0.00 | 77 | 1015.9 |
| 20260906220100 | 63 | 346 | 5.0 | 10.0 | 0.00 | 0.11 | 0.00 | 76 | 1015.9 |
| 20260906214613 | 63 | 30 | 4.0 | 9.0 | 0.00 | 0.11 | 0.00 | 75 | 1015.9 |
| 20260906213103 | 62 | 64 | 2.0 | 8.0 | 0.00 | 0.11 | 0.00 | 75 | 1015.8 |
| 20260906211600 | 62 | 0 | 2.0 | 5.0 | 0.00 | 0.11 | 0.00 | 75 | 1015.9 |
| 20260906210112 | 62 | 112 | 3.0 | 8.0 | 0.00 | 0.11 | 0.00 | 76 | 1015.9 |
| 20260906204604 | 62 | 99 | 3.0 | 8.0 | 0.00 | 0.11 | 0.00 | 77 | 1015.8 |
| 20260906203105 | 62 | 126 | 5.0 | 8.0 | 0.00 | 0.11 | 0.00 | 77 | 1015.9 |
| 20260906201636 | 61 | 107 | 2.0 | 9.0 | 0.00 | 0.11 | 0.00 | 78 | 1016.1 |
| 20260906200100 | 61 | 85 | 1.0 | 7.0 | 0.00 | 0.11 | 0.00 | 80 | 1016.2 |
| 20260906194608 | 61 | 134 | 4.0 | 9.0 | 0.00 | 0.11 | 0.00 | 79 | 1016.3 |
| 20260906193059 | 60 | 112 | 5.0 | 9.0 | 0.00 | 0.11 | 0.00 | 80 | 1016.5 |
| 20260906191611 | 60 | 126 | 4.0 | 9.0 | 0.00 | 0.11 | 0.00 | 80 | 1016.6 |
| 20260906190104 | 60 | 86 | 7.0 | 11.0 | 0.00 | 0.11 | 0.00 | 82 | 1016.8 |
| 20260906184603 | 59 | 101 | 7.0 | 12.0 | 0.00 | 0.11 | 0.00 | 83 | 1016.8 |
| 20260906183106 | 59 | 126 | 9.0 | 15.0 | 0.00 | 0.11 | 0.00 | 85 | 1016.7 |
| 20260906181632 | 59 | 132 | 7.0 | 13.0 | 0.00 | 0.11 | 0.00 | 88 | 1016.9 |
| 20260906180104 | 58 | 74 | 4.0 | 8.0 | 0.00 | 0.11 | 0.00 | 88 | 1017.2 |
| 20260906174611 | 58 | 76 | 5.0 | 12.0 | 0.00 | 0.11 | 0.00 | 88 | 1017.4 |
| 20260906173106 | 57 | 66 | 6.0 | 11.0 | 0.00 | 0.11 | 0.00 | 88 | 1017.4 |
| 20260906171600 | 56 | 91 | 8.0 | 14.0 | 0.00 | 0.11 | 0.00 | 89 | 1017.2 |
| 20260906164600 | 54 | 338 | 4.0 | 8.0 | 0.00 | 0.11 | 0.00 | 90 | 1018.5 |
| 20260906163111 | 54 | 347 | 4.0 | 10.0 | 0.00 | 0.11 | 0.00 | 91 | 1018.6 |
| 20260906161608 | 54 | 13 | 4.0 | 10.0 | 0.00 | 0.11 | 0.00 | 91 | 1018.7 |
| 20260906160059 | 53 | 355 | 4.0 | 9.0 | 0.00 | 0.11 | 0.00 | 91 | 1018.7 |
| 20260906154606 | 53 | 5 | 4.0 | 11.0 | 0.00 | 0.11 | 0.00 | 91 | 1018.8 |
| 20260906153059 | 53 | 11 | 4.0 | 11.0 | 0.00 | 0.11 | 0.00 | 90 | 1019.2 |
| 20260906151600 | 53 | 13 | 6.0 | 10.0 | 0.00 | 0.11 | 0.00 | 88 | 1019.2 |
| 20260906150107 | 54 | 34 | 7.0 | 14.0 | 0.00 | 0.11 | 0.00 | 88 | 1019.2 |
| 20260906144603 | 54 | 296 | 7.0 | 16.0 | 0.00 | 0.11 | 0.00 | 88 | 1019.4 |
| 20260906143101 | 54 | 355 | 8.0 | 18.0 | 0.00 | 0.11 | 0.00 | 88 | 1019.5 |
| 20260906141606 | 56 | 355 | 7.0 | 13.0 | 0.00 | 0.11 | 0.00 | 87 | 1019.5 |
| 20260906140109 | 56 | 322 | 5.0 | 8.0 | 0.00 | 0.11 | 0.00 | 86 | 1019.2 |
| 20260906134617 | 56 | 331 | 2.0 | 5.0 | 0.00 | 0.16 | 0.00 | 85 | 1018.8 |
| 20260906133113 | 56 | 9 | 3.0 | 5.0 | 0.00 | 0.16 | 0.00 | 84 | 1018.8 |
| 20260906131606 | 56 | 5 | 2.0 | 9.0 | 0.00 | 0.16 | 0.00 | 85 | 1018.8 |
| 20260906130112 | 56 | 11 | 5.0 | 11.0 | 0.00 | 0.16 | 0.00 | 85 | 1019.0 |
| 20260906124608 | 57 | 350 | 5.0 | 9.0 | 0.00 | 0.17 | 0.00 | 84 | 1019.0 |
| 20260906123101 | 57 | 77 | 5.0 | 10.0 | 0.00 | 0.17 | 0.00 | 85 | 1019.2 |
| 20260906121625 | 58 | 93 | 4.0 | 9.0 | 0.00 | 0.17 | 0.00 | 85 | 1018.7 |
| 20260906120106 | 58 | 89 | 6.0 | 14.0 | 0.00 | 0.17 | 0.00 | 85 | 1018.4 |
| 20260906114625 | 58 | 87 | 5.0 | 9.0 | 0.00 | 0.17 | 0.00 | 84 | 1018.3 |
| 20260906113114 | 58 | 128 | 3.0 | 7.0 | 0.00 | 0.17 | 0.00 | 84 | 1018.7 |
| 20260906111558 | 58 | 98 | 2.0 | 11.0 | 0.00 | 0.17 | 0.00 | 83 | 1018.7 |
| 20260906110106 | 58 | 69 | 6.0 | 11.0 | 0.00 | 0.17 | 0.00 | 83 | 1018.8 |
| 20260906104602 | 58 | 81 | 7.0 | 13.0 | 0.00 | 0.17 | 0.00 | 83 | 1019.1 |
| 20260906103100 | 57 | 64 | 4.0 | 11.0 | 0.00 | 0.17 | 0.00 | 84 | 1019.2 |
| 20260906101602 | 57 | 63 | 5.0 | 10.0 | 0.00 | 0.17 | 0.00 | 85 | 1019.1 |
| 20260906100106 | 57 | 23 | 6.0 | 9.0 | 0.00 | 0.17 | 0.00 | 85 | 1018.9 |
| 20260906094559 | 57 | 66 | 5.0 | 9.0 | 0.00 | 0.17 | 0.00 | 86 | 1019.1 |
| 20260906093105 | 57 | 64 | 4.0 | 12.0 | 0.00 | 0.17 | 0.00 | 86 | 1019.0 |
| 20260906091619 | 56 | 67 | 7.0 | 13.0 | 0.00 | 0.17 | 0.00 | 88 | 1018.8 |
| 20260906090112 | 56 | 68 | 4.0 | 11.0 | 0.00 | 0.17 | 0.00 | 87 | 1019.0 |
| 20260906084601 | 56 | 41 | 5.0 | 11.0 | 0.00 | 0.17 | 0.00 | 87 | 1019.1 |
| 20260906083059 | 56 | 338 | 5.0 | 9.0 | 0.00 | 0.17 | 0.00 | 87 | 1019.4 |
| 20260906081602 | 56 | 45 | 5.0 | 10.0 | 0.00 | 0.17 | 0.00 | 87 | 1019.7 |
| 20260906080111 | 56 | 11 | 4.0 | 9.0 | 0.00 | 0.17 | 0.00 | 86 | 1019.9 |
| 20260906074602 | 56 | 14 | 6.0 | 11.0 | 0.00 | 0.17 | 0.00 | 85 | 1019.9 |
| 20260906073100 | 56 | 338 | 4.0 | 8.0 | 0.00 | 0.17 | 0.00 | 86 | 1020.1 |
| 20260906071616 | 57 | 9 | 2.0 | 8.0 | 0.00 | 0.17 | 0.00 | 86 | 1020.1 |
| 20260906070106 | 56 | 68 | 2.0 | 7.0 | 0.00 | 0.17 | 0.00 | 86 | 1020.1 |
| 20260906064606 | 56 | 57 | 2.0 | 9.0 | 0.01 | 0.17 | 0.00 | 85 | 1020.2 |
| 20260906063100 | 57 | 61 | 3.0 | 8.0 | 0.01 | 0.17 | 0.00 | 84 | 1020.4 |
| 20260906061600 | 57 | 60 | 3.0 | 12.0 | 0.01 | 0.17 | 0.00 | 83 | 1020.5 |
| 20260906060150 | 56 | 355 | 8.0 | 15.0 | 0.01 | 0.17 | 0.00 | 84 | 1020.6 |
| 20260906054613 | 56 | 15 | 8.0 | 12.0 | 0.00 | 0.16 | 0.16 | 86 | 1020.6 |
| 20260906053105 | 56 | 360 | 6.0 | 10.0 | 0.00 | 0.16 | 0.16 | 85 | 1020.6 |
| 20260906051606 | 56 | 15 | 6.0 | 10.0 | 0.01 | 0.16 | 0.16 | 86 | 1020.3 |
| 20260906050116 | 56 | 5 | 6.0 | 10.0 | 0.01 | 0.16 | 0.16 | 86 | 1020.0 |
| 20260906044601 | 56 | 9 | 6.0 | 9.0 | 0.01 | 0.16 | 0.16 | 86 | 1020.2 |
| 20260906043105 | 57 | 10 | 3.0 | 9.0 | 0.01 | 0.16 | 0.16 | 85 | 1020.1 |
| 20260906041558 | 57 | 348 | 5.0 | 11.0 | 0.00 | 0.15 | 0.15 | 84 | 1020.3 |
| 20260906040111 | 58 | 360 | 6.0 | 11.0 | 0.00 | 0.15 | 0.15 | 82 | 1019.5 |
| 20260906034603 | 58 | 56 | 3.0 | 11.0 | 0.09 | 0.15 | 0.15 | 80 | 1018.9 |
| 20260906033104 | 59 | 20 | 4.0 | 12.0 | 0.09 | 0.15 | 0.15 | 79 | 1019.1 |
| 20260906031630 | 59 | 64 | 10.0 | 15.0 | 0.09 | 0.15 | 0.15 | 76 | 1019.3 |
| 20260906030104 | 60 | 73 | 6.0 | 15.0 | 0.09 | 0.15 | 0.15 | 74 | 1019.4 |
| 20260906024605 | 62 | 323 | 11.0 | 17.0 | 0.00 | 0.06 | 0.06 | 67 | 1020.6 |
| 20260906023111 | 62 | 69 | 8.0 | 13.0 | 0.00 | 0.06 | 0.06 | 64 | 1017.7 |
| 20260906021600 | 63 | 81 | 6.0 | 10.0 | 0.00 | 0.06 | 0.06 | 67 | 1017.4 |
| 20260906020106 | 63 | 54 | 2.0 | 8.0 | 0.00 | 0.06 | 0.06 | 65 | 1017.7 |
| 20260906014611 | 64 | 87 | 6.0 | 13.0 | 0.00 | 0.06 | 0.06 | 61 | 1017.6 |
| 20260906013104 | 65 | 67 | 7.0 | 12.0 | 0.00 | 0.06 | 0.06 | 60 | 1017.6 |
| 20260906011610 | 66 | 53 | 6.0 | 13.0 | 0.00 | 0.06 | 0.06 | 60 | 1017.8 |
| 20260906010104 | 67 | 50 | 4.0 | 14.0 | 0.00 | 0.06 | 0.06 | 57 | 1017.7 |
| 20260906004608 | 68 | 86 | 4.0 | 13.0 | 0.00 | 0.06 | 0.06 | 55 | 1017.7 |
| 20260906003104 | 68 | 28 | 4.0 | 13.0 | 0.00 | 0.06 | 0.06 | 53 | 1017.6 |
| 20260906001601 | 70 | 33 | 7.0 | 16.0 | 0.00 | 0.06 | 0.06 | 51 | 1017.7 |
| 20260906000109 | 71 | 350 | 8.0 | 16.0 | 0.00 | 0.06 | 0.06 | 48 | 1017.8 |
| 20260905234559 | 72 | 5 | 5.0 | 12.0 | 0.00 | 0.06 | 0.06 | 45 | 1017.7 |
| 20260905233107 | 72 | 11 | 3.0 | 14.0 | 0.00 | 0.06 | 0.06 | 45 | 1018.0 |
| 20260905231618 | 72 | 34 | 4.0 | 11.0 | 0.00 | 0.06 | 0.06 | 44 | 1018.0 |